{"data":{"norad_id":57852,"intl_designator":"2023-141N","name":"STARLINK-30431","alt_names":[],"object_type":"PAYLOAD","status":"ACTIVE","operator":null,"country":"US","launch_date":"2023-09-12","launch_site_code":"AFWTR","launch_vehicle":null,"mission":null,"orbit_class":"UNKNOWN","rcs_meters":null,"size_class":null,"mass_kg":null,"dimensions":null,"purposes":["comms"],"wikipedia_slug":null,"has_3d_model":false,"image_url":null,"decayed_at":null,"tle_current":{"epoch":"2026-09-19T23:00:09.391392Z","epoch_age_seconds":181428,"freshness":"STALE","line1":"1 57852U 23141N   26262.95844203  .00000622  00000+0  29553-4 0  9998","line2":"2 57852  53.1604 100.1926 0001176  80.2731 279.8405 15.34386852170089","mean_motion":15.34386852,"eccentricity":0.0001176,"inclination_deg":53.1604,"raan_deg":100.1926,"arg_perigee_deg":80.2731,"mean_anomaly_deg":279.8405,"bstar":2.9553e-5,"rev_number":17008,"period_min":93.84856225293,"perigee_km":461.93783170504,"apogee_km":463.5468065209,"semimajor_km":6840.879319113,"source":"CELESTRAK","updated_at":"2026-09-21T09:00:33.713565Z"}}}